SWA1104 KRNO-KLAS

Flight info

Callsign SWA1104
Flight time 0h 56m
Altitude 33000
Route ZEFFR9 PESKE TQILA COKTL4
Aircraft B737/M-SADE2E3GIJ4RWZ/LB1D1

Departure

Time 2026-05-07 15:40
Airport Reno Tahoe International Airport (KRNO)

Arrival

Time 2026-05-07 16:36
Airport Harry Reid International Airport (KLAS)
Time Latitude Longitude Altitude Speed Heading
2026-05-07 14:56 39.50516 -119.77236 4417 ft 0 kts 246°
2026-05-07 15:31 39.50517 -119.77233 4418 ft 2 kts 246°
2026-05-07 15:32 39.50523 -119.77216 4418 ft 2 kts 246°
2026-05-07 15:32 39.50529 -119.77197 4418 ft 2 kts 246°
2026-05-07 15:32 39.50532 -119.77178 4418 ft 2 kts 282°
2026-05-07 15:32 39.50526 -119.77161 4418 ft 2 kts 315°
2026-05-07 15:33 39.50513 -119.77151 4418 ft 1 kts 350°
2026-05-07 15:33 39.50506 -119.77151 4418 ft 1 kts
2026-05-07 15:33 39.50502 -119.77151 4418 ft 0 kts
2026-05-07 15:35 39.50508 -119.77151 4418 ft 2 kts
2026-05-07 15:36 39.50532 -119.77151 4418 ft 4 kts
2026-05-07 15:36 39.50575 -119.77150 4418 ft 7 kts 360°
2026-05-07 15:36 39.50636 -119.77151 4419 ft 10 kts 359°
2026-05-07 15:36 39.50716 -119.77151 4419 ft 12 kts 360°
2026-05-07 15:37 39.50805 -119.77151 4419 ft 13 kts
2026-05-07 15:37 39.50899 -119.77151 4420 ft 13 kts
2026-05-07 15:37 39.50997 -119.77150 4420 ft 14 kts
2026-05-07 15:37 39.51096 -119.77149 4421 ft 14 kts
2026-05-07 15:38 39.51199 -119.77148 4422 ft 14 kts
2026-05-07 15:38 39.51303 -119.77148 4422 ft 15 kts 358°
2026-05-07 15:38 39.51376 -119.77081 4423 ft 15 kts 89°
2026-05-07 15:38 39.51373 -119.76942 4422 ft 15 kts 89°
2026-05-07 15:39 39.51374 -119.76799 4422 ft 16 kts 90°
2026-05-07 15:39 39.51338 -119.76676 4422 ft 17 kts 174°
2026-05-07 15:39 39.51049 -119.76675 4420 ft 79 kts 180°
2026-05-07 15:39 39.50234 -119.76678 4415 ft 151 kts 180°
2026-05-07 15:40 39.49096 -119.76683 4961 ft 167 kts 179°
2026-05-07 15:40 39.47936 -119.76681 5788 ft 170 kts 180°
2026-05-07 15:40 39.46772 -119.76719 6602 ft 171 kts 182°
2026-05-07 15:40 39.45605 -119.76785 7368 ft 173 kts 183°
2026-05-07 15:41 39.44391 -119.76852 8005 ft 180 kts 184°
2026-05-07 15:41 39.43086 -119.76929 8474 ft 197 kts 184°
2026-05-07 15:41 39.41640 -119.76985 8925 ft 217 kts 182°
2026-05-07 15:41 39.40105 -119.76989 9522 ft 232 kts 182°
2026-05-07 15:42 39.38398 -119.76977 10003 ft 254 kts 181°
2026-05-07 15:42 39.36555 -119.76954 10454 ft 277 kts 181°
2026-05-07 15:42 39.34576 -119.76924 10924 ft 298 kts 179°
2026-05-07 15:42 39.32453 -119.76489 11405 ft 320 kts 162°
2026-05-07 15:43 39.30513 -119.74962 11890 ft 340 kts 137°
2026-05-07 15:43 39.28841 -119.72688 12412 ft 356 kts 132°
2026-05-07 15:43 39.27203 -119.70262 13187 ft 362 kts 131°
2026-05-07 15:43 39.25542 -119.67787 13932 ft 369 kts 131°
2026-05-07 15:44 39.23855 -119.65298 14717 ft 373 kts 131°
2026-05-07 15:44 39.22139 -119.62794 15494 ft 377 kts 131°
2026-05-07 15:44 39.20395 -119.60271 16243 ft 381 kts 131°
2026-05-07 15:44 39.18597 -119.57681 16947 ft 386 kts 131°
2026-05-07 15:45 39.16811 -119.55117 17624 ft 391 kts 131°
2026-05-07 15:45 39.14988 -119.52519 18386 ft 394 kts 132°
2026-05-07 15:45 39.13065 -119.49967 19049 ft 398 kts 134°
2026-05-07 15:45 39.11067 -119.47479 19744 ft 402 kts 135°
2026-05-07 15:46 39.06996 -119.42529 21053 ft 410 kts 135°
2026-05-07 15:46 39.04902 -119.39980 21720 ft 413 kts 135°
2026-05-07 15:46 39.02815 -119.37425 22356 ft 416 kts 134°
2026-05-07 15:47 39.00737 -119.34873 22897 ft 421 kts 135°
2026-05-07 15:47 38.98601 -119.32245 23494 ft 424 kts 135°
2026-05-07 15:47 38.96486 -119.29637 24044 ft 428 kts 135°
2026-05-07 15:47 38.94326 -119.26973 24689 ft 430 kts 135°
2026-05-07 15:48 38.92165 -119.24309 25197 ft 434 kts 135°
2026-05-07 15:48 38.89999 -119.21639 25750 ft 436 kts 135°
2026-05-07 15:48 38.87794 -119.18922 26248 ft 440 kts 135°
2026-05-07 15:48 38.85582 -119.16200 26751 ft 442 kts 135°
2026-05-07 15:49 38.83369 -119.13478 27243 ft 445 kts 135°
2026-05-07 15:49 38.81151 -119.10753 27714 ft 447 kts 134°
2026-05-07 15:49 38.78916 -119.08011 28375 ft 445 kts 135°
2026-05-07 15:49 38.76709 -119.05243 29060 ft 441 kts 133°
2026-05-07 15:50 38.74622 -119.02385 29636 ft 439 kts 130°
2026-05-07 15:50 38.72614 -118.99458 30211 ft 437 kts 129°
2026-05-07 15:50 38.70645 -118.96505 30774 ft 436 kts 128°
2026-05-07 15:50 38.68708 -118.93581 31324 ft 434 kts 128°
2026-05-07 15:51 38.66757 -118.90644 31827 ft 433 kts 128°
2026-05-07 15:51 38.64814 -118.87737 32343 ft 431 kts 128°
2026-05-07 15:51 38.62857 -118.84828 32836 ft 430 kts 128°
2026-05-07 15:51 38.60890 -118.81920 33223 ft 431 kts 128°
2026-05-07 15:52 38.58923 -118.79022 33289 ft 434 kts 128°
2026-05-07 15:52 38.54990 -118.73256 33248 ft 430 kts 128°
2026-05-07 15:53 38.51042 -118.67490 33235 ft 430 kts 128°
2026-05-07 15:53 38.47098 -118.61745 33228 ft 430 kts 128°
2026-05-07 15:54 38.43129 -118.55971 33268 ft 431 kts 128°
2026-05-07 15:54 38.39198 -118.50266 33292 ft 430 kts 128°
2026-05-07 15:55 38.35245 -118.44537 33309 ft 430 kts 128°
2026-05-07 15:55 38.31303 -118.38836 33315 ft 429 kts 128°
2026-05-07 15:56 38.27366 -118.33152 33301 ft 431 kts 129°
2026-05-07 15:56 38.23392 -118.27427 33303 ft 430 kts 129°
2026-05-07 15:57 38.19429 -118.21726 33292 ft 430 kts 129°
2026-05-07 15:57 38.15469 -118.16040 33284 ft 430 kts 129°
2026-05-07 15:58 38.11529 -118.10394 33273 ft 430 kts 129°
2026-05-07 15:58 38.07568 -118.04727 33258 ft 430 kts 129°
2026-05-07 15:59 38.03593 -117.99049 33245 ft 432 kts 129°
2026-05-07 15:59 37.99591 -117.93344 33241 ft 431 kts 129°
2026-05-07 16:00 37.95614 -117.87685 33249 ft 430 kts 129°
2026-05-07 16:00 37.91656 -117.82062 33260 ft 430 kts 129°
2026-05-07 16:01 37.87661 -117.76394 33277 ft 430 kts 129°
2026-05-07 16:01 37.83685 -117.70764 33281 ft 430 kts 129°
2026-05-07 16:02 37.79712 -117.65150 33282 ft 430 kts 129°
2026-05-07 16:02 37.75737 -117.59544 33280 ft 429 kts 129°
2026-05-07 16:03 37.71753 -117.53934 33280 ft 429 kts 129°
2026-05-07 16:03 37.67779 -117.48345 33277 ft 429 kts 128°
2026-05-07 16:04 37.63794 -117.42752 33285 ft 430 kts 128°
2026-05-07 16:04 37.59809 -117.37170 33286 ft 429 kts 128°
2026-05-07 16:05 37.55794 -117.31556 33285 ft 429 kts 129°
2026-05-07 16:05 37.51834 -117.26027 33282 ft 428 kts 129°
2026-05-07 16:06 37.47751 -117.20542 33282 ft 430 kts 133°
2026-05-07 16:06 37.43084 -117.15826 33277 ft 434 kts 142°
2026-05-07 16:07 37.38078 -117.11537 33272 ft 433 kts 143°
2026-05-07 16:07 37.33089 -117.07346 33261 ft 434 kts 143°
2026-05-07 16:08 37.28097 -117.03104 33248 ft 433 kts 143°
2026-05-07 16:08 37.23125 -116.98838 33229 ft 432 kts 142°
2026-05-07 16:09 37.18202 -116.94595 33237 ft 432 kts 142°
2026-05-07 16:09 37.13232 -116.90309 33240 ft 433 kts 142°
2026-05-07 16:10 37.08289 -116.86050 33241 ft 431 kts 142°
2026-05-07 16:10 37.03368 -116.81815 33237 ft 431 kts 142°
2026-05-07 16:11 36.98422 -116.77567 33223 ft 431 kts 142°
2026-05-07 16:11 36.93494 -116.73341 33212 ft 431 kts 142°
2026-05-07 16:12 36.88545 -116.69102 33203 ft 431 kts 142°
2026-05-07 16:12 36.83594 -116.64870 33193 ft 430 kts 142°
2026-05-07 16:13 36.78659 -116.60655 33188 ft 430 kts 142°
2026-05-07 16:13 36.76223 -116.58579 32981 ft 426 kts 142°
2026-05-07 16:13 36.73790 -116.56509 32570 ft 419 kts 142°
2026-05-07 16:13 36.71388 -116.54466 32025 ft 415 kts 142°
2026-05-07 16:14 36.69008 -116.52442 31392 ft 414 kts 142°
2026-05-07 16:14 36.66701 -116.50363 30730 ft 412 kts 138°
2026-05-07 16:14 36.64525 -116.48029 30049 ft 411 kts 133°
2026-05-07 16:14 36.62529 -116.45531 29355 ft 410 kts 129°
2026-05-07 16:15 36.60603 -116.42916 28639 ft 411 kts 128°
2026-05-07 16:15 36.58719 -116.40260 27931 ft 410 kts 127°
2026-05-07 16:15 36.56871 -116.37620 27494 ft 412 kts 127°
2026-05-07 16:15 36.54948 -116.34859 26997 ft 428 kts 128°
2026-05-07 16:16 36.52991 -116.32058 26460 ft 428 kts 128°
2026-05-07 16:16 36.51052 -116.29305 25927 ft 422 kts 128°
2026-05-07 16:16 36.49133 -116.26592 25395 ft 415 kts 128°
2026-05-07 16:16 36.47234 -116.23917 24878 ft 409 kts 128°
2026-05-07 16:17 36.45367 -116.21289 24367 ft 402 kts 128°
2026-05-07 16:17 36.43541 -116.18722 23861 ft 398 kts 128°
2026-05-07 16:17 36.41712 -116.16151 23353 ft 396 kts 128°
2026-05-07 16:17 36.39892 -116.13595 22844 ft 397 kts 128°
2026-05-07 16:18 36.38062 -116.11024 22336 ft 397 kts 128°
2026-05-07 16:18 36.36229 -116.08452 21816 ft 397 kts 128°
2026-05-07 16:18 36.34427 -116.05926 21291 ft 395 kts 128°
2026-05-07 16:18 36.32613 -116.03387 20764 ft 392 kts 128°
2026-05-07 16:19 36.30803 -116.00857 20228 ft 390 kts 128°
2026-05-07 16:19 36.29010 -115.98353 19713 ft 387 kts 128°
2026-05-07 16:19 36.27265 -115.95919 19413 ft 375 kts 128°
2026-05-07 16:19 36.25560 -115.93546 19236 ft 360 kts 128°
2026-05-07 16:20 36.23978 -115.91273 19173 ft 344 kts 126°
2026-05-07 16:20 36.22494 -115.88955 19195 ft 339 kts 124°
2026-05-07 16:20 36.21063 -115.86624 19205 ft 342 kts 123°
2026-05-07 16:20 36.19629 -115.84283 19210 ft 341 kts 123°
2026-05-07 16:21 36.18196 -115.81973 19215 ft 341 kts 123°
2026-05-07 16:21 36.16742 -115.79647 19222 ft 341 kts 124°
2026-05-07 16:21 36.15314 -115.77347 19173 ft 339 kts 122°
2026-05-07 16:21 36.14016 -115.74909 18832 ft 332 kts 115°
2026-05-07 16:22 36.13007 -115.72411 18422 ft 326 kts 109°
2026-05-07 16:22 36.12162 -115.69842 17987 ft 321 kts 107°
2026-05-07 16:22 36.11391 -115.67255 17552 ft 318 kts 106°
2026-05-07 16:22 36.10651 -115.64733 17138 ft 315 kts 106°
2026-05-07 16:23 36.09897 -115.62206 16717 ft 312 kts 107°
2026-05-07 16:23 36.09135 -115.59699 16301 ft 309 kts 107°
2026-05-07 16:23 36.08386 -115.57262 15898 ft 306 kts 107°
2026-05-07 16:23 36.07631 -115.54816 15492 ft 304 kts 107°
2026-05-07 16:24 36.06884 -115.52401 15088 ft 301 kts 107°
2026-05-07 16:24 36.06140 -115.49998 14681 ft 298 kts 107°
2026-05-07 16:24 36.05405 -115.47621 14271 ft 296 kts 107°
2026-05-07 16:24 36.04677 -115.45273 13874 ft 293 kts 107°
2026-05-07 16:25 36.03945 -115.42909 13480 ft 296 kts 107°
2026-05-07 16:25 36.03207 -115.40522 13066 ft 300 kts 107°
2026-05-07 16:25 36.02463 -115.38126 12655 ft 298 kts 107°
2026-05-07 16:25 36.01767 -115.35750 12263 ft 293 kts 103°
2026-05-07 16:26 36.01388 -115.33306 11887 ft 286 kts 93°
2026-05-07 16:26 36.01268 -115.30872 11477 ft 283 kts 89°
2026-05-07 16:26 36.01214 -115.28467 11095 ft 281 kts 89°
2026-05-07 16:26 36.01144 -115.26070 10711 ft 279 kts 90°
2026-05-07 16:27 36.01047 -115.23694 10333 ft 277 kts 90°
2026-05-07 16:27 36.00935 -115.21332 9970 ft 275 kts 91°
2026-05-07 16:27 36.00818 -115.19041 9746 ft 267 kts 91°
2026-05-07 16:27 36.00700 -115.16777 9653 ft 254 kts 91°
2026-05-07 16:28 36.00592 -115.14657 9573 ft 242 kts 91°
2026-05-07 16:28 36.00489 -115.12620 9492 ft 234 kts 91°
2026-05-07 16:28 36.00391 -115.10622 9374 ft 242 kts 90°
2026-05-07 16:28 36.00287 -115.08522 9029 ft 246 kts 91°
2026-05-07 16:29 36.00181 -115.06416 8707 ft 245 kts 91°
2026-05-07 16:29 36.00074 -115.04333 8411 ft 244 kts 91°
2026-05-07 16:29 35.99963 -115.02229 8097 ft 243 kts 91°
2026-05-07 16:29 35.99875 -115.00169 7873 ft 238 kts 89°
2026-05-07 16:30 35.99861 -114.98134 7444 ft 239 kts 87°
2026-05-07 16:30 35.99875 -114.96091 7085 ft 236 kts 87°
2026-05-07 16:30 35.99918 -114.94106 6896 ft 225 kts 82°
2026-05-07 16:30 36.00343 -114.92287 6583 ft 222 kts 56°
2026-05-07 16:31 36.01461 -114.91042 6350 ft 216 kts 26°
2026-05-07 16:31 36.02859 -114.90408 6109 ft 213 kts 16°
2026-05-07 16:31 36.04311 -114.90037 5832 ft 213 kts 358°
2026-05-07 16:31 36.05663 -114.90623 5576 ft 208 kts 325°
2026-05-07 16:32 36.06714 -114.91795 5380 ft 198 kts 312°
2026-05-07 16:32 36.07323 -114.93279 5072 ft 199 kts 281°
2026-05-07 16:32 36.07359 -114.94981 4790 ft 195 kts 271°
2026-05-07 16:32 36.07364 -114.96652 4528 ft 191 kts 271°
2026-05-07 16:33 36.07367 -114.98251 4296 ft 187 kts 271°
2026-05-07 16:33 36.07357 -114.99853 4033 ft 184 kts 270°
2026-05-07 16:33 36.07347 -115.01420 3793 ft 181 kts 270°
2026-05-07 16:33 36.07351 -115.02949 3565 ft 177 kts 271°
2026-05-07 16:34 36.07353 -115.04441 3360 ft 165 kts 271°
2026-05-07 16:34 36.07359 -115.05794 3125 ft 152 kts 271°
2026-05-07 16:34 36.07364 -115.07048 2960 ft 142 kts 270°
2026-05-07 16:34 36.07365 -115.08261 2771 ft 143 kts 270°
2026-05-07 16:35 36.07365 -115.09502 2585 ft 144 kts 270°
2026-05-07 16:35 36.07362 -115.10734 2387 ft 143 kts 270°
2026-05-07 16:35 36.07366 -115.11957 2215 ft 141 kts 270°
2026-05-07 16:35 36.07365 -115.13165 2073 ft 134 kts 269°
2026-05-07 16:36 36.07364 -115.14032 2098 ft 76 kts 270°
2026-05-07 16:36 36.07364 -115.14535 2113 ft 45 kts 270°
2026-05-07 16:36 36.07391 -115.14848 2124 ft 30 kts 288°
2026-05-07 16:36 36.07477 -115.15066 2131 ft 20 kts 305°
2026-05-07 16:37 36.07536 -115.15134 2133 ft 0 kts 329°
2026-05-07 16:37 36.07564 -115.15153 2133 ft 13 kts 337°
2026-05-07 16:37 36.07678 -115.15218 2134 ft 19 kts 335°
2026-05-07 16:37 36.07796 -115.15244 2133 ft 18 kts 49°
2026-05-07 16:38 36.07913 -115.15199 2131 ft 19 kts 357°
2026-05-07 16:38 36.08052 -115.15195 2128 ft 20 kts 27°
2026-05-07 16:38 36.08146 -115.15060 2123 ft 20 kts 39°
2026-05-07 16:38 36.08251 -115.14955 2119 ft 17 kts
2026-05-07 16:39 36.08324 -115.15026 2120 ft 9 kts 277°
2026-05-07 16:39 36.08318 -115.15051 2120 ft 0 kts 244°
2026-05-07 16:39 36.08317 -115.15054 2120 ft 0 kts 247°